Home > Weather > Friedrichshafen > Past weeks

Flag for Germany Weather for the Past 2 Weeks in Friedrichshafen, Baden-Württemberg, Germany

Now
36 °F

Chilly.


Feels Like: 36 °F
Forecast: 34 / 45 °F
Wind: No wind

Location: Friedrichshafen Airport

Current Time: Feb 13, 2016 at 1:35:40 AM

Latest Report: Feb 13, 2016 at 12:50 AM


Visibility: N/A

Pressure: 29.33 "Hg

Humidity: 87%

Dew point: 32 °F

Location of FriedrichshafenLocation

Historic Weather in Friedrichshafen — Graph

°F

Friedrichshafen Temperature Yesterday

Maximum temperature yesterday: 45 °F (at 1:20 PM)
Minimum temperature yesterday: 30 °F (at 12:20 AM)
Average temperature yesterday: 37 °F

High & Low Weather Summary for the Past Weeks

 TemperatureHumidityPressure
High55 °F (Feb 1, 1:50 PM)93% (Jan 29, 12:20 AM)30.48 "Hg (Jan 29, 12:20 AM)
Low30 °F (Feb 6, 12:20 AM)36% (Feb 11, 2:20 PM)29.30 "Hg (Feb 9, 5:20 PM)
Average41 °F74%30.00 "Hg
* Reported Jan 29 12:20 AM — Feb 12 11:50 PM, Friedrichshafen, Weather by CustomWeather, © 2016

Note: Actual official high and low records may vary slightly from our data, if they occured in-between our weather recording intervals... More about our weather records

Advertising

Friedrichshafen Weather History for the Previous 24 Hours

 ConditionsComfort  
Time TempWeatherWind HumidityBarometerVisibility
11:50 PM
Fri, Feb 12
36 °FMostly cloudy.2 mph87%29.36 "HgN/A
11:20 PM36 °FLight rain. Mostly cloudy.2 mph87%29.36 "HgN/A
10:20 PM36 °FMostly cloudy.2 mph87%29.36 "HgN/A
9:50 PM37 °FMostly cloudy.3 mph81%29.36 "HgN/A
9:20 PM37 °FSprinkles. Mostly cloudy.6 mph81%29.36 "HgN/A
8:50 PM37 °FDrizzle. Mostly cloudy.6 mph81%29.36 "HgN/A
8:20 PM37 °FDrizzle. Mostly cloudy.2 mph81%29.36 "HgN/A
7:50 PM37 °FDrizzle. Mostly cloudy.3 mph81%29.36 "HgN/A
7:20 PM39 °FLight rain. Mostly cloudy.2 mph70%29.39 "HgN/A
6:50 PM39 °FDrizzle. Mostly cloudy.7 mph65%29.39 "HgN/A
6:20 PM41 °FMostly cloudy.5 mph49%29.36 "HgN/A
5:50 PM43 °FOvercast.7 mph46%29.36 "HgN/A
5:20 PM43 °FLight rain. Mostly cloudy.10 mph42%29.36 "HgN/A
4:50 PM45 °FSunny.6 mph42%29.36 "Hg10 mi
4:20 PM45 °FSunny.7 mph42%29.36 "Hg10 mi
3:50 PM45 °FSunny.10 mph46%29.36 "Hg10 mi
3:20 PM45 °FSunny.12 mph46%29.36 "Hg10 mi
2:50 PM45 °FSunny.9 mph42%29.42 "Hg10 mi
2:20 PM45 °FSunny.8 mph42%29.42 "Hg10 mi
1:50 PM45 °FPassing clouds.10 mph46%29.45 "HgN/A
1:20 PM45 °FPassing clouds.8 mph46%29.47 "HgN/A
12:50 PM43 °FSunny.8 mph49%29.50 "Hg10 mi
12:20 PM43 °FSunny.7 mph46%29.53 "Hg10 mi
11:50 AM41 °FPassing clouds.5 mph49%29.56 "HgN/A
11:20 AM41 °FPassing clouds.6 mph45%29.56 "HgN/A
10:50 AM39 °FSunny.6 mph65%29.59 "Hg10 mi
10:20 AM37 °FSunny.5 mph70%29.59 "Hg10 mi
9:50 AM36 °FSunny.5 mph70%29.62 "Hg10 mi
9:20 AM32 °FSunny.3 mph80%29.62 "Hg10 mi
8:50 AM32 °FSunny.2 mph87%29.65 "Hg10 mi
8:20 AM32 °FPartly sunny.3 mph80%29.68 "HgN/A
7:50 AM32 °FBroken clouds.2 mph80%29.68 "HgN/A
7:20 AM32 °FPartly cloudy.2 mph80%29.68 "HgN/A
6:50 AM32 °FMostly cloudy.2 mph80%29.68 "HgN/A
6:20 AM32 °FPartly cloudy.2 mph80%29.71 "Hg5 mi
5:50 AM30 °FLight snow. Mostly cloudy.2 mph86%29.71 "Hg5 mi
4:50 AM30 °FSnow flurries. Mostly cloudy.2 mph86%29.71 "HgN/A
4:20 AM30 °FSnow flurries. Overcast.2 mph80%29.71 "HgN/A
3:50 AM30 °FOvercast.2 mph80%29.71 "HgN/A
3:20 AM30 °FMostly cloudy.1 mph80%29.71 "HgN/A
2:50 AM32 °FOvercast.2 mph75%29.74 "HgN/A
2:20 AM32 °FMostly cloudy.2 mph75%29.74 "HgN/A
1:50 AM32 °FOvercast.2 mph75%29.74 "HgN/A
1:20 AM30 °FOvercast.No wind80%29.74 "HgN/A
Weather by CustomWeather, © 2016

See weather overviewHow to use our weather pages